TimeCDT,TemperatureF,Dew PointF,Humidity,Sea Level PressureIn,VisibilityMPH,Wind Direction,Wind SpeedMPH,Gust SpeedMPH,PrecipitationIn,Events,Conditions,WindDirDegrees,DateUTC
12:15 AM,66.9,55.0,66,29.98,10.0,South,10.4,17.3,N/A,,Clear,180,2013-05-05 05:15:00
12:35 AM,67.1,55.2,66,29.98,10.0,South,11.5,-,N/A,,Clear,180,2013-05-05 05:35:00
12:55 AM,67.1,54.9,65,29.98,10.0,South,13.8,-,N/A,,Clear,180,2013-05-05 05:55:00
1:15 AM,66.7,54.7,65,29.98,10.0,South,10.4,-,N/A,,Clear,190,2013-05-05 06:15:00
1:35 AM,66.6,55.4,67,29.98,10.0,South,11.5,-,N/A,,Clear,190,2013-05-05 06:35:00
1:55 AM,66.6,55.6,68,29.97,10.0,South,10.4,17.3,N/A,,Clear,190,2013-05-05 06:55:00
2:15 AM,66.4,55.9,69,29.96,10.0,South,11.5,-,N/A,,Clear,190,2013-05-05 07:15:00
2:35 AM,66.2,56.1,70,29.96,10.0,South,12.7,-,N/A,,Clear,190,2013-05-05 07:35:00
2:55 AM,66.2,56.1,70,29.95,10.0,South,13.8,-,N/A,,Clear,190,2013-05-05 07:55:00
3:15 AM,66.0,56.5,71,29.96,10.0,South,11.5,-,N/A,,Clear,190,2013-05-05 08:15:00
3:35 AM,66.2,56.3,70,29.96,10.0,South,10.4,-,N/A,,Clear,190,2013-05-05 08:35:00
3:55 AM,66.2,56.8,72,29.96,10.0,SSW,11.5,-,N/A,,Clear,200,2013-05-05 08:55:00
4:15 AM,66.0,57.6,74,29.96,10.0,SSW,10.4,-,N/A,,Clear,200,2013-05-05 09:15:00
4:35 AM,66.2,57.4,73,29.96,10.0,SSW,9.2,-,N/A,,Clear,210,2013-05-05 09:35:00
4:55 AM,65.3,57.4,76,29.96,10.0,SW,5.8,-,N/A,,Clear,230,2013-05-05 09:55:00
5:15 AM,63.0,57.2,81,29.96,10.0,SW,4.6,-,N/A,,Clear,230,2013-05-05 10:15:00
5:35 AM,62.8,57.7,84,29.97,10.0,WSW,3.5,-,N/A,,Clear,240,2013-05-05 10:35:00
5:55 AM,62.6,58.5,86,29.97,10.0,WSW,4.6,-,N/A,,Clear,240,2013-05-05 10:55:00
6:15 AM,62.8,58.6,86,29.98,10.0,WSW,4.6,-,N/A,,Clear,240,2013-05-05 11:15:00
6:35 AM,63.0,58.3,85,29.98,10.0,WSW,4.6,-,N/A,,Clear,250,2013-05-05 11:35:00
6:55 AM,63.0,58.3,85,29.99,10.0,WSW,4.6,-,N/A,,Clear,240,2013-05-05 11:55:00
7:15 AM,63.5,58.5,84,30.01,10.0,WSW,5.8,-,N/A,,Clear,250,2013-05-05 12:15:00
7:35 AM,64.6,58.6,81,30.01,10.0,WSW,4.6,-,N/A,,Clear,240,2013-05-05 12:35:00
7:55 AM,65.8,59.2,79,30.02,10.0,WSW,4.6,-,N/A,,Clear,250,2013-05-05 12:55:00
8:15 AM,67.3,58.6,74,30.05,10.0,NNW,8.1,-,N/A,,Clear,340,2013-05-05 13:15:00
8:35 AM,66.9,58.5,74,30.05,10.0,North,10.4,-,N/A,,Clear,10,2013-05-05 13:35:00
8:55 AM,67.3,58.5,73,30.06,10.0,North,6.9,-,N/A,,Clear,360,2013-05-05 13:55:00
9:15 AM,67.6,58.1,71,30.06,10.0,North,10.4,-,N/A,,Clear,360,2013-05-05 14:15:00
9:35 AM,67.6,57.4,70,30.07,10.0,North,8.1,-,N/A,,Clear,360,2013-05-05 14:35:00
9:55 AM,68.4,56.8,67,30.08,10.0,NNW,10.4,-,N/A,,Clear,340,2013-05-05 14:55:00
10:15 AM,68.9,56.5,65,30.08,10.0,North,9.2,-,N/A,,Clear,10,2013-05-05 15:15:00
10:35 AM,69.6,55.9,62,30.08,10.0,North,10.4,-,N/A,,Clear,360,2013-05-05 15:35:00
10:55 AM,70.3,55.4,59,30.09,10.0,North,10.4,-,N/A,,Clear,10,2013-05-05 15:55:00
11:15 AM,70.9,55.4,58,30.09,10.0,North,10.4,-,N/A,,Clear,350,2013-05-05 16:15:00
11:35 AM,71.6,54.9,55,30.09,10.0,NNW,8.1,-,N/A,,Clear,340,2013-05-05 16:35:00
11:55 AM,72.5,54.9,54,30.09,10.0,North,8.1,-,N/A,,Clear,350,2013-05-05 16:55:00
12:15 PM,73.8,54.5,51,30.08,10.0,North,8.1,-,N/A,,Clear,350,2013-05-05 17:15:00
12:35 PM,74.7,54.3,49,30.07,10.0,NNW,10.4,-,N/A,,Clear,340,2013-05-05 17:35:00
1:15 PM,77.4,53.6,44,30.06,-9999.0,NNE,11.5,18.4,N/A,,Clear,20,2013-05-05 18:15:00
1:35 PM,77.5,53.1,42,30.05,-9999.0,NNE,9.2,16.1,N/A,,Clear,20,2013-05-05 18:35:00
1:55 PM,77.2,51.6,41,30.05,-9999.0,NNE,9.2,-,N/A,,Clear,30,2013-05-05 18:55:00
2:15 PM,79.0,53.8,42,30.05,-9999.0,East,16.1,19.6,N/A,,Clear,80,2013-05-05 19:15:00
2:35 PM,73.8,57.9,58,30.04,10.0,East,16.1,-,N/A,,Clear,80,2013-05-05 19:35:00
2:55 PM,73.9,54.7,51,30.04,-9999.0,East,15.0,19.6,N/A,,Clear,80,2013-05-05 19:55:00
3:15 PM,74.5,53.6,48,30.04,-9999.0,East,13.8,20.7,N/A,,Clear,80,2013-05-05 20:15:00
3:35 PM,74.7,52.2,45,30.03,-9999.0,East,16.1,19.6,N/A,,Clear,80,2013-05-05 20:35:00
3:55 PM,73.9,53.4,49,30.02,10.0,East,11.5,-,N/A,,Clear,80,2013-05-05 20:55:00
4:15 PM,72.7,55.8,55,30.01,10.0,East,13.8,-,N/A,,Clear,90,2013-05-05 21:15:00
4:35 PM,72.5,55.9,56,30.01,10.0,East,12.7,-,N/A,,Clear,100,2013-05-05 21:35:00
4:55 PM,72.5,55.4,55,30.00,10.0,ESE,11.5,-,N/A,,Clear,110,2013-05-05 21:55:00
5:15 PM,72.0,54.5,54,30.00,10.0,ESE,10.4,-,N/A,,Clear,120,2013-05-05 22:15:00
5:35 PM,72.0,54.9,55,30.00,10.0,ESE,11.5,-,N/A,,Clear,120,2013-05-05 22:35:00
5:55 PM,71.8,55.4,56,30.00,10.0,SE,10.4,-,N/A,,Clear,130,2013-05-05 22:55:00
6:15 PM,71.2,54.7,56,30.00,10.0,SE,8.1,-,N/A,,Clear,130,2013-05-05 23:15:00
6:35 PM,71.1,55.4,58,30.00,10.0,SE,6.9,-,N/A,,Clear,140,2013-05-05 23:35:00
7:15 PM,70.3,54.9,58,30.00,10.0,SE,6.9,-,N/A,,Clear,130,2013-05-06 00:15:00
7:35 PM,69.8,54.9,59,30.00,10.0,SE,6.9,-,N/A,,Clear,140,2013-05-06 00:35:00
7:55 PM,69.1,56.5,64,30.01,10.0,SE,8.1,-,N/A,,Clear,130,2013-05-06 00:55:00
8:15 PM,68.5,56.5,65,30.01,10.0,SE,10.4,-,N/A,,Clear,130,2013-05-06 01:15:00
8:35 PM,68.4,57.0,67,30.02,10.0,ESE,9.2,-,N/A,,Clear,110,2013-05-06 01:35:00
8:55 PM,68.4,56.5,66,30.03,10.0,ESE,8.1,-,N/A,,Clear,110,2013-05-06 01:55:00
9:35 PM,68.0,55.6,64,30.04,10.0,SE,5.8,-,N/A,,Clear,130,2013-05-06 02:35:00
9:55 PM,68.4,54.9,62,30.05,10.0,SE,6.9,-,N/A,,Clear,130,2013-05-06 02:55:00
10:15 PM,68.9,54.7,60,30.05,10.0,SE,5.8,-,N/A,,Clear,130,2013-05-06 03:15:00
10:35 PM,68.9,55.6,62,30.06,10.0,SE,4.6,-,N/A,,Clear,130,2013-05-06 03:35:00
10:55 PM,68.5,55.6,63,30.06,10.0,SE,4.6,-,N/A,,Clear,140,2013-05-06 03:55:00
11:15 PM,68.5,55.6,63,30.07,10.0,SE,4.6,-,N/A,,Clear,130,2013-05-06 04:15:00
11:35 PM,68.2,55.4,64,30.07,10.0,SE,4.6,-,N/A,,Clear,140,2013-05-06 04:35:00
11:55 PM,68.2,55.2,63,30.07,10.0,SE,4.6,-,N/A,,Clear,130,2013-05-06 04:55:00